GW3211 Weather Reports


time (UTC)temp
C
wind
direction
speed
KPH
gust
KPH
rain 1hr
cm
rain 24hr
cm
rain mn
cm
humidity
%
barometer
mb
20260508113411 7 158 0.0 3.2 0.00 0.00 0.00 100 1018.0
20260508113136 7 116 0.0 3.2 0.00 0.00 0.00 100 1017.8
20260508112341 6 94 0.0 3.2 0.00 0.00 0.00 100 1017.8
20260508111811 5 124 0.0 3.2 0.00 0.00 0.00 100 1017.6
20260508111310 5 139 1.6 3.2 0.00 0.00 0.00 100 1017.6
20260508110740 5 114 0.0 3.2 0.00 0.00 0.00 100 1017.8
20260508105711 3 120 3.2 3.2 0.00 0.00 0.00 100 1017.8
20260508105139 3 101 0.0 3.2 0.00 0.00 0.00 100 1017.7
20260508104609 3 118 0.0 3.2 0.00 0.00 0.00 100 1017.5
20260508104109 3 100 0.0 3.2 0.00 0.00 0.00 100 1017.5
20260508103756 3 119 1.6 3.2 0.00 0.00 0.00 100 1017.2
20260508103233 2 105 0.0 3.2 0.00 0.00 0.00 100 1017.3
20260508102510 2 86 1.6 3.2 0.00 0.00 0.00 100 1017.3
20260508101939 2 68 1.6 3.2 0.00 0.00 0.00 100 1017.2
20260508101408 3 90 0.0 3.2 0.00 0.00 0.00 100 1017.0
20260508100909 3 126 0.0 3.2 0.00 0.00 0.00 100 1017.1
20260508100338 3 57 0.0 3.2 0.00 0.00 0.00 100 1017.1
20260508095808 3 36 0.0 3.2 0.00 0.00 0.00 100 1017.1
20260508095307 3 129 0.0 3.2 0.00 0.00 0.00 100 1016.9
20260508094737 3 104 3.2 3.2 0.00 0.00 0.00 100 1017.1
20260508094208 3 81 0.0 3.2 0.00 0.00 0.00 100 1017.0
20260508093707 3 135 0.0 3.2 0.00 0.00 0.00 100 1016.9
20260508093138 3 112 1.6 3.2 0.00 0.00 0.00 100 1016.6
20260508092607 4 21 0.0 3.2 0.00 0.00 0.00 100 1016.8
20260508092107 4 63 3.2 3.2 0.00 0.00 0.00 100 1016.7
20260508091549 4 81 0.0 3.2 0.00 0.00 0.00 100 1016.6
20260508091006 5 90 0.0 3.2 0.00 0.00 0.00 100 1016.5
20260508090506 5 344 0.0 3.2 0.00 0.00 0.00 100 1016.5
20260508085936 4 72 0.0 3.2 0.00 0.00 0.00 100 1016.6
20260508085406 4 71 0.0 3.2 0.00 0.00 0.00 100 1016.5
20260508084905 5 194 0.0 3.2 0.00 0.00 0.00 100 1016.3
20260508084336 5 104 1.6 3.2 0.00 0.00 0.00 100 1016.3
20260508083806 5 277 1.6 3.2 0.00 0.00 0.00 100 1016.0
20260508083305 5 78 1.6 3.2 0.00 0.00 0.00 100 1016.3
20260508082737 5 107 0.0 3.2 0.00 0.00 0.00 100 1016.0
20260508082205 5 34 0.0 3.2 0.00 0.00 0.00 100 1016.2
20260508081931 5 81 0.0 3.2 0.00 0.00 0.00 100 1016.1
20260508081134 5 92 3.2 3.2 0.00 0.00 0.00 100 1016.0
20260508080635 5 80 1.6 3.2 0.00 0.00 0.00 100 1016.0
20260508080339 5 95 0.0 3.2 0.00 0.00 0.00 100 1016.1
20260508075534 5 119 1.6 3.2 0.00 0.00 0.00 100 1015.8
20260508075038 5 81 0.0 3.2 0.00 0.00 0.00 100 1015.7
20260508074504 5 95 0.0 4.8 0.00 0.00 0.00 100 1015.6
20260508073934 6 95 0.0 4.8 0.00 0.00 0.00 100 1015.6
20260508073434 6 81 1.6 3.2 0.00 0.00 0.00 100 1015.4
20260508072904 6 129 0.0 4.8 0.00 0.00 0.00 100 1015.1
20260508072333 6 133 0.0 4.8 0.00 0.00 0.00 100 1015.2
20260508072053 6 53 0.0 3.2 0.00 0.00 0.00 100 1015.1
20260508071527 7 73 0.0 3.2 0.00 0.00 0.00 100 1015.2
20260508070952 7 83 1.6 4.8 0.00 0.00 0.00 100 1014.9
20260508070232 7 98 0.0 4.8 0.00 0.00 0.00 100 1014.8
20260508065702 7 94 0.0 3.2 0.00 0.00 0.00 100 1014.8
20260508065132 7 114 0.0 3.2 0.00 0.00 0.00 100 1014.7
20260508064852 7 65 0.0 3.2 0.00 0.00 0.00 100 1014.4
20260508064103 7 89 1.6 3.2 0.00 0.00 0.00 100 1014.6
20260508063531 7 126 0.0 3.2 0.00 0.00 0.00 100 1014.6
20260508063302 7 29 3.2 4.8 0.00 0.00 0.00 100 1014.6
20260508062726 7 50 3.2 4.8 0.00 0.00 0.00 100 1014.5
20260508061931 8 86 3.2 3.2 0.00 0.00 0.00 100 1014.6
20260508061431 8 49 0.0 3.2 0.00 0.03 0.00 100 1014.5
20260508060901 8 157 0.0 3.2 0.00 0.03 0.00 100 1014.4
20260508060330 8 113 1.6 3.2 0.00 0.03 0.00 100 1014.4
20260508055831 8 179 0.0 3.2 0.00 0.03 0.00 100 1014.4
20260508055300 8 57 0.0 3.2 0.00 0.03 0.00 100 1014.4
20260508054731 8 136 3.2 4.8 0.00 0.03 0.00 100 1014.4
20260508054230 8 210 0.0 4.8 0.00 0.03 0.00 100 1014.3
20260508053700 8 319 3.2 4.8 0.00 0.03 0.00 100 1014.2
20260508053131 8 215 1.6 6.4 0.00 0.05 0.00 99 1014.3
20260508052630 8 143 0.0 6.4 0.00 0.10 0.00 99 1014.3
20260508052320 8 122 0.0 4.8 0.00 0.13 0.00 99 1014.4
20260508051530 8 187 0.0 6.4 0.00 0.20 0.00 99 1014.3
20260508051255 8 158 0.0 6.4 0.00 0.23 0.00 98 1014.2
20260508050501 8 195 3.2 4.8 0.00 0.30 0.00 98 1014.2
20260508045930 8 60 0.0 3.2 0.00 0.30 0.00 98 1014.2
20260508045428 8 144 0.0 4.8 0.00 0.33 0.00 97 1014.2
20260508044858 8 172 0.0 4.8 0.00 0.33 0.00 97 1014.1
20260508044329 8 246 1.6 4.8 0.00 0.33 0.00 97 1014.0
20260508043828 8 172 0.0 3.2 0.00 0.33 0.00 96 1014.1
20260508043258 9 229 0.0 4.8 0.00 0.33 0.00 96 1013.8
20260508042728 9 152 0.0 4.8 0.00 0.33 0.00 95 1013.8
20260508042228 9 51 0.0 8.0 0.00 0.33 0.00 95 1013.9
20260508041657 9 103 0.0 8.0 0.00 0.33 0.00 95 1013.8
20260508041127 9 176 3.2 6.4 0.00 0.33 0.00 94 1013.8
20260508040627 9 167 0.0 4.8 0.00 0.33 0.00 94 1013.8
20260508040110 10 327 0.0 6.4 0.00 0.33 0.00 93 1013.6
20260508035528 10 106 3.2 6.4 0.00 0.33 0.33 93 1013.7
20260508035031 10 229 4.8 8.0 0.00 0.33 0.33 93 1013.6
20260508034457 10 213 3.2 8.0 0.00 0.33 0.33 92 1013.6
20260508033926 10 331 0.0 8.0 0.00 0.33 0.33 93 1013.7
20260508033427 10 194 3.2 8.0 0.00 0.33 0.33 93 1013.4
20260508032855 10 185 3.2 8.0 0.00 0.33 0.33 92 1013.7
20260508032325 10 189 4.8 6.4 0.00 0.33 0.33 92 1013.6
20260508031826 10 205 1.6 6.4 0.00 0.33 0.33 92 1013.7
20260508031255 10 227 6.4 6.4 0.00 0.33 0.33 92 1013.8
20260508030942 10 133 0.0 9.7 0.00 0.33 0.33 92 1013.5
20260508030225 10 165 3.2 9.7 0.00 0.33 0.33 92 1013.5
20260508025154 9 266 1.6 4.8 0.00 0.33 0.33 95 1013.4
20260508024625 8 170 3.2 4.8 0.00 0.33 0.33 96 1013.4
20260508024313 8 137 0.0 3.2 0.00 0.33 0.33 96 1013.5
20260508023555 8 158 0.0 3.2 0.00 0.33 0.33 96 1013.2
20260508023027 8 135 0.0 3.2 0.00 0.33 0.33 96 1013.5
20260508022453 8 101 0.0 3.2 0.00 0.33 0.33 96 1013.6
20260508021953 8 98 0.0 3.2 0.00 0.33 0.33 95 1013.5
20260508021425 8 70 0.0 3.2 0.00 0.33 0.33 95 1013.5
20260508020853 8 105 0.0 3.2 0.00 0.33 0.33 94 1013.4
20260508020353 8 81 0.0 3.2 0.00 0.33 0.33 93 1013.6
20260508015825 8 147 0.0 6.4 0.00 0.33 0.33 93 1013.4
20260508015512 8 132 0.0 6.4 0.00 0.33 0.33 92 1013.4
20260508014753 8 47 0.0 3.2 0.00 0.33 0.33 91 1013.3
20260508014223 9 202 0.0 4.8 0.00 0.33 0.33 91 1013.3
20260508013653 9 126 0.0 4.8 0.00 0.33 0.33 91 1013.3
20260508013153 9 145 0.0 3.2 0.00 0.33 0.33 92 1013.3
20260508012622 8 142 0.0 3.2 0.00 0.33 0.33 92 1013.2
20260508012052 8 132 0.0 0.0 0.00 0.33 0.33 92 1013.2
20260508011552 9 142 0.0 1.6 0.00 0.33 0.33 91 1013.0
20260508011255 9 166 0.0 3.2 0.00 0.33 0.33 90 1012.8
20260508010451 9 154 0.0 3.2 0.00 0.33 0.33 89 1012.6
20260508005952 9 162 3.2 3.2 0.00 0.33 0.33 90 1012.7
20260508005421 8 150 0.0 3.2 0.00 0.33 0.33 90 1012.6
20260508004851 9 90 0.0 3.2 0.00 0.33 0.33 88 1012.7
20260508004350 9 58 1.6 3.2 0.00 0.33 0.33 87 1012.8
20260508003822 10 133 0.0 4.8 0.00 0.33 0.33 85 1012.3
20260508003251 10 136 3.2 4.8 0.00 0.33 0.33 84 1012.3
20260508002751 10 141 3.2 6.4 0.00 0.33 0.33 82 1012.2
20260508002219 10 114 3.2 6.4 0.00 0.33 0.33 80 1012.4
20260508001909 11 189 0.0 3.2 0.00 0.33 0.33 78 1012.2
20260508001412 11 131 3.2 4.8 0.00 0.33 0.33 76 1012.0
20260508000621 12 153 0.0 6.4 0.00 0.33 0.33 74 1012.0
20260508000104 12 143 0.0 6.4 0.00 0.33 0.33 73 1011.7
20260507235548 12 198 3.2 4.8 0.00 0.33 0.33 72 1012.0
20260507235022 12 161 3.2 3.2 0.00 0.33 0.33 71 1011.8
20260507234449 12 158 0.0 6.4 0.00 0.33 0.33 71 1011.9
20260507233950 13 131 6.4 14.5 0.00 0.33 0.33 69 1011.8
20260507233419 13 225 3.2 14.5 0.00 0.33 0.33 67 1011.6
20260507233111 13 218 6.4 12.9 0.00 0.33 0.33 68 1011.7
20260507232347 13 193 3.2 12.9 0.00 0.33 0.33 65 1011.7
20260507231818 13 173 0.0 9.7 0.00 0.33 0.33 66 1011.5
20260507231250 13 161 8.0 9.7 0.00 0.33 0.33 66 1011.5
20260507230747 13 180 3.2 9.7 0.00 0.33 0.33 66 1011.3
20260507230218 14 216 4.8 9.7 0.00 0.33 0.33 63 1011.3
20260507225649 14 183 6.4 11.3 0.00 0.33 0.33 62 1011.4
20260507225147 14 196 3.2 12.9 0.00 0.33 0.33 62 1011.2
20260507224618 14 222 3.2 12.9 0.00 0.33 0.33 61 1011.2
20260507224047 14 211 6.4 16.1 0.00 0.33 0.33 60 1011.2
20260507223546 15 195 3.2 16.1 0.00 0.33 0.33 60 1011.1
20260507223018 15 212 6.4 14.5 0.00 0.33 0.33 60 1011.2
20260507222446 15 172 0.0 14.5 0.00 0.33 0.33 58 1011.1
20260507222207 15 211 4.8 17.7 0.00 0.33 0.33 56 1011.1
20260507221416 15 48 1.6 17.7 0.00 0.33 0.33 58 1011.2
20260507220846 15 107 3.2 12.9 0.00 0.33 0.33 56 1011.4
20260507220345 16 129 0.0 12.9 0.00 0.33 0.33 55 1011.0
20260507215245 16 27 1.6 11.3 0.00 0.33 0.33 57 1011.3
20260507214746 16 229 4.8 12.9 0.00 0.33 0.33 57 1011.4
20260507214216 16 57 8.0 12.9 0.00 0.33 0.33 58 1011.2
20260507213716 16 115 4.8 12.9 0.00 0.33 0.33 57 1011.3
20260507213145 16 53 4.8 8.0 0.00 0.33 0.33 57 1010.9
20260507212615 16 232 8.0 11.3 0.00 0.33 0.33 57 1011.2
20260507212114 16 252 3.2 11.3 0.00 0.33 0.33 58 1011.1
20260507211545 16 98 4.8 11.3 0.00 0.33 0.33 55 1011.2
20260507211013 16 15 0.0 9.7 0.00 0.33 0.33 56 1011.2
20260507210529 15 154 3.2 11.3 0.00 0.33 0.33 56 1011.5
20260507205944 16 157 3.2 17.7 0.00 0.33 0.33 58 1011.0
20260507205414 16 49 8.0 17.7 0.00 0.33 0.33 57 1011.3
20260507205132 15 52 8.0 12.9 0.00 0.33 0.33 58 1011.3
20260507204344 15 189 6.4 11.3 0.00 0.33 0.33 58 1011.3
20260507203813 16 230 3.2 11.3 0.00 0.33 0.33 58 1011.3
20260507203315 16 298 3.2 14.5 0.00 0.33 0.33 58 1011.3
20260507202743 15 166 6.4 16.1 0.00 0.33 0.33 59 1011.3
20260507202214 15 222 9.7 12.9 0.00 0.33 0.33 60 1011.6
20260507201930 15 216 3.2 11.3 0.00 0.33 0.33 61 1011.2
20260507201142 15 147 3.2 9.7 0.00 0.33 0.33 59 1011.3
20260507200625 15 106 4.8 16.1 0.00 0.33 0.33 58 1011.4
20260507200116 15 65 4.8 16.1 0.00 0.33 0.33 57 1011.2
20260507195542 15 133 6.4 12.9 0.00 0.33 0.33 57 1011.4
20260507195244 15 212 4.8 11.3 0.00 0.33 0.33 56 1011.5
20260507194511 15 204 8.0 14.5 0.00 0.33 0.33 58 1011.1
20260507193411 15 110 6.4 14.5 0.00 0.33 0.33 57 1011.9
20260507192912 15 2 4.8 14.5 0.00 0.33 0.33 58 1012.1
20260507192340 16 214 9.7 17.7 0.00 0.33 0.33 57 1012.1
20260507191813 15 135 3.2 17.7 0.00 0.33 0.33 58 1012.1
20260507191312 15 228 6.4 14.5 0.00 0.33 0.33 61 1012.1
20260507190741 13 189 9.7 14.5 0.00 0.33 0.33 62 1011.8
20260507190210 15 348 6.4 14.5 0.00 0.33 0.33 63 1012.0
20260507185711 14 310 1.6 14.5 0.00 0.33 0.33 63 1012.2
20260507185141 15 303 4.8 11.3 0.00 0.33 0.33 60 1012.4
20260507184828 14 205 6.4 11.3 0.00 0.33 0.33 63 1012.6
20260507184109 13 143 3.2 12.9 0.00 0.33 0.33 64 1012.2
20260507183539 14 21 0.0 12.9 0.00 0.33 0.33 63 1012.5
20260507183009 13 153 3.2 9.7 0.00 0.33 0.33 64 1012.5
20260507182511 13 85 1.6 9.7 0.00 0.33 0.33 63 1012.8
20260507181939 13 12 3.2 9.7 0.00 0.33 0.33 62 1012.8
20260507181409 13 175 4.8 9.7 0.00 0.33 0.33 66 1012.6
20260507180908 13 211 9.7 9.7 0.00 0.33 0.33 61 1012.7
20260507180340 13 212 8.0 8.0 0.00 0.33 0.33 61 1012.7
20260507175820 13 80 3.2 6.4 0.00 0.33 0.33 63 1012.9
20260507175308 13 275 3.2 8.0 0.00 0.33 0.33 65 1013.2
20260507175001 13 249 1.6 8.0 0.00 0.33 0.33 70 1013.2
20260507174442 12 193 4.8 8.0 0.00 0.33 0.33 73 1013.6
20260507173708 13 176 3.2 6.4 0.00 0.33 0.33 68 1013.2
20260507173139 13 89 6.4 6.4 0.00 0.33 0.33 61 1013.2
20260507172607 13 17 0.0 8.0 0.00 0.33 0.33 59 1013.3
20260507172108 14 230 4.8 8.0 0.00 0.33 0.33 58 1014.1
20260507171537 15 78 1.6 9.7 0.00 0.33 0.33 55 1013.4
20260507171009 14 317 0.0 9.7 0.00 0.33 0.33 53 1013.4
20260507170507 14 351 4.8 8.0 0.00 0.33 0.33 54 1013.5
20260507165406 13 163 3.2 6.4 0.00 0.33 0.33 58 1014.0
20260507164907 13 268 3.2 9.7 0.00 0.33 0.33 57 1013.7
20260507164336 13 73 6.4 9.7 0.00 0.33 0.33 58 1014.0
20260507163806 14 41 0.0 6.4 0.00 0.33 0.33 56 1013.9
20260507163305 13 209 3.2 6.4 0.00 0.33 0.33 56 1014.0
20260507162956 13 356 3.2 4.8 0.00 0.33 0.33 57 1013.9
20260507162205 13 84 3.2 8.0 0.00 0.33 0.33 55 1013.9
20260507161929 12 0 4.8 8.0 0.00 0.33 0.33 57 1014.1
20260507161135 13 254 3.2 8.0 0.00 0.33 0.33 57 1014.4
20260507160858 12 312 4.8 8.0 0.00 0.33 0.33 56 1014.5
20260507160117 13 327 3.2 6.4 0.00 0.33 0.33 56 1014.5
20260507155535 12 43 3.2 6.4 0.00 0.33 0.33 57 1014.5
20260507155257 13 275 0.0 8.0 0.00 0.33 0.33 61 1014.7
20260507154505 12 77 3.2 8.0 0.00 0.33 0.33 58 1014.6
20260507153935 12 2 4.8 8.0 0.00 0.36 0.33 60 1014.6
20260507153434 12 36 1.6 8.0 0.00 0.38 0.33 62 1014.5
20260507152904 13 35 3.2 11.3 0.00 0.38 0.33 60 1014.3
20260507152334 12 46 4.8 11.3 0.00 0.38 0.33 58 1014.6
20260507151833 12 42 3.2 6.4 0.00 0.38 0.33 65 1014.5
20260507151304 12 0 1.6 6.4 0.00 0.38 0.33 63 1014.7
20260507150734 12 236 0.0 6.4 0.00 0.38 0.33 67 1014.8
20260507150234 12 11 4.8 9.7 0.00 0.38 0.33 65 1014.8
20260507145702 12 28 3.2 9.7 0.00 0.41 0.33 64 1014.6
20260507145134 12 55 3.2 9.7 0.00 0.41 0.33 66 1015.0
20260507144632 12 336 3.2 11.3 0.00 0.46 0.33 64 1015.0
20260507144104 12 358 4.8 14.5 0.00 0.48 0.33 64 1015.2
20260507143533 12 45 3.2 14.5 0.00 0.51 0.33 63 1015.2
20260507143034 12 8 8.0 12.9 0.00 0.56 0.33 63 1015.3
20260507142502 12 30 3.2 12.9 0.00 0.56 0.33 64 1015.1
20260507141932 12 28 4.8 17.7 0.00 0.58 0.33 65 1015.1
20260507141431 12 47 4.8 17.7 0.00 0.58 0.33 66 1015.1
20260507140903 13 337 3.2 16.1 0.00 0.58 0.33 65 1014.9
20260507140332 13 319 1.6 16.1 0.00 0.58 0.33 66 1015.2
20260507135832 13 30 9.7 11.3 0.00 0.61 0.33 66 1015.2
20260507135301 12 357 6.4 16.1 0.00 0.61 0.33 69 1015.3
20260507134733 12 41 1.6 16.1 0.00 0.61 0.33 71 1015.4
20260507134232 12 31 3.2 14.5 0.00 0.61 0.33 70 1015.4
20260507133926 12 37 6.4 14.5 0.00 0.61 0.33 71 1015.1
20260507133130 12 35 4.8 14.5 0.00 0.61 0.33 71 1015.2
20260507132631 12 59 4.8 11.3 0.00 0.61 0.33 74 1015.3
20260507132059 12 108 3.2 16.1 0.00 0.61 0.33 72 1015.1
20260507131530 12 353 4.8 16.1 0.00 0.61 0.33 74 1014.8
20260507131031 12 13 11.3 11.3 0.00 0.61 0.33 77 1015.1
20260507130500 12 37 4.8 9.7 0.00 0.61 0.33 78 1015.0
20260507125930 12 10 3.2 11.3 0.00 0.61 0.33 79 1015.3
20260507125653 12 74 3.2 11.3 0.00 0.61 0.33 77 1015.5
20260507125129 12 359 3.2 9.7 0.00 0.61 0.33 77 1015.4
20260507124552 12 356 3.2 9.7 0.00 0.61 0.33 77 1015.4
20260507123828 12 359 8.0 11.3 0.00 0.61 0.33 78 1015.2
20260507123259 12 23 3.2 14.5 0.00 0.61 0.33 78 1014.9
20260507122729 12 330 3.2 14.5 0.00 0.61 0.33 78 1014.9
20260507122450 12 349 8.0 12.9 0.00 0.61 0.33 77 1014.8
20260507121658 12 329 3.2 12.9 0.00 0.61 0.33 82 1014.9
20260507121127 12 22 3.2 14.5 0.00 0.61 0.33 82 1014.8
20260507120628 12 5 3.2 14.5 0.00 0.61 0.33 81 1014.9
20260507120111 12 84 4.8 8.0 0.00 0.61 0.33 88 1014.8
20260507115526 12 46 6.4 6.4 0.00 0.61 0.33 88 1015.0
20260507115031 12 34 4.8 6.4 0.00 0.61 0.33 90 1014.8
20260507114456 12 18 4.8 6.4 0.00 0.61 0.33 90 1015.0
20260507113927 12 307 0.0 4.8 0.00 0.61 0.33 92 1014.6